{"data":{"norad_id":56136,"epoch":"2026-09-20T08:28:24.548160Z","epoch_age_seconds":121422,"freshness":"FRESH","line1":"1 56136U 23046AW  26263.35306190  .00000807  00000+0  38862-4 0  9997","line2":"2 56136  43.0036 127.4394 0001597 273.2691  86.7978 15.27580619191977","mean_motion":15.27580619,"eccentricity":0.0001597,"inclination_deg":43.0036,"raan_deg":127.4394,"arg_perigee_deg":273.2691,"mean_anomaly_deg":86.7978,"bstar":3.8862e-5,"rev_number":19197,"period_min":94.266710515263,"perigee_km":481.95151140806,"apogee_km":484.14297365513,"semimajor_km":6861.1842425316,"source":"CELESTRAK","updated_at":"2026-09-21T09:00:33.388915Z"}}